This demonstration page uses our WeatherBlox Daily Observations layout. Learn more.

Left ArrowRight Arrow

Hourly Observations for January 9, 2017

Temp ( °F °C ) Dew Point ( °F °C ) Humidity (%) Winds ( mph kmh ) Pressure ( in mb ) Visibility ( mi km ) Precip ( " mm )
12:16 am 00:16 Clear 16 -9 3 -16 57 57 Calm 30.74 1041 10 16.0934 0 0
12:36 am 00:36 Clear 16 -9 3 -16 57 57 Calm 30.74 1041 10 16.0934 0 0
12:56 am 00:56 Clear 16 -9 3 -16 57 57 SW 5 7 30.74 1041 10 16.0934 0 0
1:16 am 01:16 Clear 14 -10 3 -16 62 62 W 3 6 30.77 1042 10 16.0934 0 0
1:36 am 01:36 Clear 12 -11 3 -16 67 67 W 3 6 30.74 1041 10 16.0934 0 0
1:56 am 01:56 Clear 12 -11 7 -14 79 79 Calm 30.74 1041 10 16.0934 0 0
2:16 am 02:16 Clear 12 -11 7 -14 79 79 Calm 30.74 1041 10 16.0934 0 0
2:36 am 02:36 Clear 14 -10 5 -15 67 67 SSW 5 7 30.77 1042 10 16.0934 0 0
2:56 am 02:56 Clear 12 -11 7 -14 79 79 W 7 11 30.77 1042 10 16.0934 0 0
3:16 am 03:16 Clear 14 -10 7 -14 73 73 WNW 6 9 30.74 1041 10 16.0934 0 0
3:36 am 03:36 Clear 16 -9 7 -14 67 67 W 5 7 30.77 1042 10 16.0934 0 0
3:56 am 03:56 Clear 16 -9 9 -13 73 73 WNW 5 7 30.74 1041 10 16.0934 0 0
4:16 am 04:16 Clear 18 -8 7 -14 62 62 WNW 6 9 30.74 1041 10 16.0934 0 0
4:36 am 04:36 Clear 18 -8 9 -13 68 68 W 3 6 30.74 1041 10 16.0934 0 0
4:56 am 04:56 Clear 18 -8 7 -14 62 62 Calm 30.77 1042 10 16.0934 0 0
5:16 am 05:16 Clear 18 -8 7 -14 62 62 WNW 5 7 30.77 1042 10 16.0934 0 0
5:36 am 05:36 Clear 18 -8 9 -13 68 68 Calm 30.77 1042 10 16.0934 0 0
5:56 am 05:56 Clear 18 -8 9 -13 68 68 Calm 30.74 1041 10 16.0934 0 0
6:16 am 06:16 Clear 18 -8 9 -13 68 68 SSW 3 6 30.77 1042 10 16.0934 0 0
6:36 am 06:36 Clear 16 -9 9 -13 73 73 SW 3 6 30.77 1042 10 16.0934 0 0
6:56 am 06:56 Clear 16 -9 9 -13 73 73 SW 3 6 30.77 1042 10 16.0934 0 0
7:16 am 07:16 Clear 16 -9 9 -13 73 73 W 3 6 30.77 1042 10 16.0934 0 0
7:36 am 07:36 Sunny 16 -9 9 -13 73 73 Calm 30.77 1042 10 16.0934 0 0
7:56 am 07:56 Sunny 18 -8 9 -13 68 68 Calm 30.77 1042 10 16.0934 0 0
8:16 am 08:16 Sunny 18 -8 9 -13 68 68 SSW 3 6 30.77 1042 10 16.0934 0 0
8:36 am 08:36 Partly Cloudy 18 -8 9 -13 68 68 WSW 3 6 30.8 1043 10 16.0934 0 0
8:56 am 08:56 Mostly Cloudy 18 -8 9 -13 68 68 Calm 30.8 1043 10 16.0934 0 0
9:16 am 09:16 Cloudy 19 -7 9 -13 63 63 S 5 7 30.8 1043 10 16.0934 0 0
9:36 am 09:36 Partly Cloudy 21 -6 9 -13 58 58 SSW 6 9 30.8 1043 10 16.0934 0 0
9:56 am 09:56 Partly Cloudy 21 -6 9 -13 58 58 SSW 6 9 30.8 1043 10 16.0934 0 0
10:16 am 10:16 Partly Cloudy 21 -6 9 -13 58 58 S 6 9 30.8 1043 10 16.0934 0 0
10:36 am 10:36 Partly Cloudy 23 -5 7 -14 50 50 S 8 13 30.77 1042 10 16.0934 0 0
10:56 am 10:56 Partly Cloudy 25 -4 7 -14 46 46 S 12 19 30.77 1042 10 16.0934 0 0
11:36 am 11:36 Mostly Cloudy 27 -3 3 -16 36 36 SSE 13 20 30.74 1041 10 16.0934 0 0
11:56 am 11:56 Partly Cloudy 27 -3 5 -15 39 39 S 10 17 30.71 1040 10 16.0934 0 0
12:16 pm 12:16 Mostly Cloudy 27 -3 3 -16 36 36 SSE 13 20 30.71 1040 10 16.0934 0 0
12:36 pm 12:36 Cloudy 27 -3 5 -15 39 39 S 13 20 30.71 1040 10 16.0934 0 0
12:56 pm 12:56 Cloudy 28 -2 5 -15 37 37 undefined N/A 30.68 1039 10 16.0934 0 0
1:16 pm 13:16 Cloudy 28 -2 5 -15 37 37 undefined N/A 30.65 1038 10 16.0934 0 0
1:36 pm 13:36 Partly Cloudy 27 -3 5 -15 39 39 S 12 19 30.65 1038 10 16.0934 0 0
1:56 pm 13:56 Sunny 27 -3 5 -15 39 39 undefined N/A 30.65 1038 10 16.0934 0 0
2:16 pm 14:16 Sunny 27 -3 3 -16 36 36 S 17 28 30.62 1037 10 16.0934 0 0
2:36 pm 14:36 Partly Cloudy 28 -2 5 -15 37 37 undefined N/A 30.62 1037 10 16.0934 0 0
2:56 pm 14:56 Mostly Cloudy 28 -2 5 -15 37 37 undefined N/A 30.62 1037 10 16.0934 0 0
3:16 pm 15:16 Mostly Cloudy 27 -3 5 -15 39 39 undefined N/A 30.62 1037 10 16.0934 0 0
3:36 pm 15:36 Mostly Cloudy 27 -3 5 -15 39 39 undefined N/A 30.62 1037 10 16.0934 0 0
3:56 pm 15:56 Partly Cloudy 27 -3 7 -14 43 43 undefined N/A 30.62 1037 10 16.0934 0 0
4:16 pm 16:16 Sunny 27 -3 7 -14 43 43 S 12 19 30.65 1038 10 16.0934 0 0
4:36 pm 16:36 Sunny 27 -3 7 -14 43 43 undefined N/A 30.65 1038 10 16.0934 0 0
4:56 pm 16:56 Mostly Cloudy 25 -4 7 -14 46 46 S 9 15 30.68 1039 10 16.0934 0 0
5:16 pm 17:16 Partly Cloudy 25 -4 7 -14 46 46 undefined N/A 30.68 1039 10 16.0934 0 0
5:36 pm 17:36 Clear 25 -4 7 -14 46 46 S 9 15 30.65 1038 10 16.0934 0 0
5:56 pm 17:56 Clear 25 -4 7 -14 46 46 S 7 11 30.68 1039 10 16.0934 0 0
6:16 pm 18:16 Clear 23 -5 7 -14 50 50 SSE 8 13 30.68 1039 10 16.0934 0 0
6:37 pm 18:37 Clear 23 -5 7 -14 50 50 S 6 9 30.68 1039 10 16.0934 0 0
6:56 pm 18:56 Clear 23 -5 7 -14 50 50 S 7 11 30.68 1039 10 16.0934 0 0
7:16 pm 19:16 Clear 23 -5 9 -13 54 54 S 7 11 30.68 1039 10 16.0934 0 0
7:36 pm 19:36 Clear 21 -6 9 -13 58 58 S 8 13 30.68 1039 10 16.0934 0 0
7:56 pm 19:56 Clear 21 -6 9 -13 58 58 S 7 11 30.68 1039 10 16.0934 0 0
8:16 pm 20:16 Clear 21 -6 9 -13 58 58 S 7 11 30.68 1039 10 16.0934 0 0
8:36 pm 20:36 Clear 21 -6 9 -13 58 58 S 6 9 30.68 1039 10 16.0934 0 0
8:56 pm 20:56 Clear 21 -6 9 -13 58 58 S 6 9 30.68 1039 10 16.0934 0 0
9:16 pm 21:16 Clear 21 -6 9 -13 58 58 S 5 7 30.68 1039 10 16.0934 0 0
9:36 pm 21:36 Clear 21 -6 9 -13 58 58 S 7 11 30.65 1038 10 16.0934 0 0
9:56 pm 21:56 Clear 21 -6 9 -13 58 58 S 8 13 30.65 1038 10 16.0934 0 0
10:16 pm 22:16 Clear 21 -6 9 -13 58 58 S 8 13 30.65 1038 10 16.0934 0 0
10:36 pm 22:36 Clear 21 -6 9 -13 58 58 S 7 11 30.65 1038 10 16.0934 0 0
10:56 pm 22:56 Clear 21 -6 9 -13 58 58 SSE 5 7 30.65 1038 10 16.0934 0 0
11:16 pm 23:16 Clear 21 -6 9 -13 58 58 S 6 9 30.65 1038 10 16.0934 0 0
11:36 pm 23:36 Clear 21 -6 9 -13 58 58 S 5 7 30.65 1038 10 16.0934 0 0
11:56 pm 23:56 Clear 21 -6 9 -13 58 58 SSE 5 7 30.62 1037 10 16.0934 0 0

Powered by AerisWeather